Tracking 28793 objects as of 20-Apr-2024
HD Live streaming from Space Station
objects crossing your sky now

NAVSTAR 78 (USA 293)

Track NAVSTAR 78 (USA 293) now!
NAVSTAR 78 (USA 293) is classified as:


NORAD ID: 44506
Int'l Code: 2019-056A
Perigee: 20,082.6 km
Apogee: 20,294.8 km
Inclination: 55.8 °
Period: 717.9 minutes
Semi major axis: 26559 km
RCS: Unknown
Launch date: August 22, 2019
Source: United States (US)
Launch site: AIR FORCE EASTERN TEST RANGE (AFETR)
PRN: 18
Your satellite tracking list
Your tracking list is empty




NASA's NSSDC Master Catalog

Two Line Element Set (TLE):
1 44506U 19056A   24108.64183510 -.00000113  00000-0  00000-0 0  9999
2 44506  55.8403   2.4795 0039941 188.9420 343.8227  2.00571233 34213
Source of the keplerian elements: AFSPC